El Centro, CA

1:04 AM PDT on March 25, 2017 (GMT -0700)
El Centro Naval Air Facility

Weather History for KNJK - April, 2014

Change the Weather History Date:

Tuesday, April 22, 2014

  Actual Average Record
Temperature  
Mean Temperature 80 °F -  
Max Temperature 93 °F 84 °F 102 °F (2012)
Min Temperature 66 °F 59 °F 50 °F (2007)
Cooling Degree Days 16    
Growing Degree Days 30 (Base 50)    
Moisture  
Dew Point 32 °F    
Average Humidity 18    
Maximum Humidity 30    
Minimum Humidity 8    
Precipitation  
Precipitation 0.00 in - - ()
Sea Level Pressure  
Sea Level Pressure 29.81 in    
Wind  
Wind Speed 19 mph (WSW)    
Max Wind Speed 31 mph    
Max Gust Speed 38 mph    
Visibility 10 miles    
Events Rain    
Averages and records for this station are not official NWS values.
T = Trace of Precipitation, MM = Missing Value Source: NWS Daily Summary

Daily Weather History Graph

Daily Weather History Graph

Search for Another Location

Airport or City:

Trip Planner

Search our weather history database for the weather conditions in past years. The results will help you decide how hot, cold, wet, or windy it might be!

Date:

Astronomy

Apr. 22, 2014 Rise Set
Actual Time 6:04 AM PDT 7:18 PM PDT
Civil Twilight 5:39 AM PDT 7:43 PM PDT
Nautical Twilight 5:08 AM PDT 8:14 PM PDT
Astronomical Twilight 4:36 AM PDT 8:46 PM PDT
Moon 1:34 AM PDT (4/22) 12:45 PM PDT (4/22)
Length of Visible Light 14h 04m
Length of Day
13h 13m
Last Quarter, 45% of the Moon is Illuminated
Apr 22
Last Quarter
Apr 28
New
May 6
First Quarter
May 14
Full
May 21
Last Quarter

Hourly Weather History & Observations

Time (PDT) Temp. Dew Point Humidity Pressure Visibility Wind Dir Wind Speed Gust Speed Precip Events Conditions
12:56 AM 80.1 °F 37.9 °F 22% 29.85 in 10.0 mi WSW 13.8 mph - N/A   Clear
1:56 AM 81.0 °F 35.1 °F 19% 29.82 in 10.0 mi West 18.4 mph - N/A   Clear
2:56 AM 75.0 °F 35.1 °F 23% 29.81 in 10.0 mi West 9.2 mph - N/A   Clear
3:56 AM 80.1 °F 36.0 °F 20% 29.81 in 10.0 mi West 25.3 mph 29.9 mph N/A   Clear
4:56 AM 79.0 °F 36.0 °F 21% 29.81 in 10.0 mi WSW 19.6 mph - 0.00 in Rain Light Rain
5:56 AM 78.1 °F 36.0 °F 22% 29.81 in 10.0 mi WSW 13.8 mph - 0.00 in   Scattered Clouds
6:56 AM 75.9 °F 39.0 °F 26% 29.84 in 10.0 mi South 8.1 mph - N/A   Mostly Cloudy
7:56 AM 80.1 °F 37.0 °F 21% 29.85 in 10.0 mi SSW 9.2 mph - N/A   Mostly Cloudy
8:56 AM 84.0 °F 34.0 °F 17% 29.85 in 10.0 mi SW 16.1 mph - N/A   Mostly Cloudy
9:56 AM 87.1 °F 32.0 °F 14% 29.84 in 10.0 mi SW 16.1 mph - N/A   Mostly Cloudy
10:56 AM 91.0 °F 25.0 °F 9% 29.84 in 10.0 mi West 21.9 mph - N/A   Mostly Cloudy
11:56 AM 91.9 °F 21.0 °F 8% 29.83 in 10.0 mi WSW 29.9 mph 34.5 mph N/A   Mostly Cloudy
12:56 PM 93.0 °F 28.9 °F 10% 29.82 in 10.0 mi SW 26.5 mph 32.2 mph N/A   Mostly Cloudy
1:56 PM 91.9 °F 30.0 °F 11% 29.80 in 10.0 mi SW 24.2 mph - N/A   Mostly Cloudy
2:56 PM 91.0 °F 28.9 °F 11% 29.78 in 10.0 mi WSW 28.8 mph 33.4 mph N/A   Mostly Cloudy
3:56 PM 88.0 °F 30.9 °F 13% 29.77 in 10.0 mi SW 24.2 mph - N/A   Mostly Cloudy
4:56 PM 86.0 °F 30.0 °F 13% 29.77 in 10.0 mi WSW 23.0 mph - N/A   Mostly Cloudy
5:56 PM 86.0 °F 23.0 °F 10% 29.77 in 10.0 mi SW 21.9 mph 28.8 mph N/A   Scattered Clouds
6:56 PM 80.1 °F 30.9 °F 17% 29.78 in 10.0 mi WSW 28.8 mph 35.7 mph N/A   Partly Cloudy
7:56 PM 75.0 °F 27.0 °F 17% 29.79 in 10.0 mi WSW 31.1 mph 38.0 mph N/A   Partly Cloudy
8:56 PM 72.0 °F 30.0 °F 21% 29.79 in 10.0 mi WSW 29.9 mph 36.8 mph N/A   Partly Cloudy
9:56 PM 69.1 °F 33.1 °F 26% 29.82 in 10.0 mi WSW 18.4 mph - N/A   Clear
10:56 PM 68.0 °F 34.0 °F 28% 29.81 in 10.0 mi WSW 19.6 mph - N/A   Clear
11:56 PM 66.9 °F 34.0 °F 30% 29.82 in 10.0 mi WSW 23.0 mph - N/A   Clear